Theta_e
310 310 309 308 309 310 310 310 310 310 310 310 310 310 311 312 313 314 319 318 319 329 324 326 325 326 328 332 333 337 344 348 344 341 341 340 343 345 346 348 346 345 343 340 338
311 310 310 308 309 310 310 310 310 310 310 310 310 311 311 312 317 321 320 325 325 324 323 329 328 328 333 338 337 339 344 346 339 338 338 344 343 346 344 349 347 344 340 337 330
312 311 311 309 309 310 310 310 311 311 311 311 311 311 312 318 329 328 324 325 323 323 323 325 328 334 336 338 338 338 346 341 341 341 343 342 344 346 348 351 346 345 340 332 327
313 313 312 310 309 310 311 311 311 311 312 312 312 312 312 325 336 327 325 324 321 321 324 328 327 333 337 342 340 347 344 341 340 342 344 344 344 346 347 347 344 341 338 329 326
313 314 313 310 309 310 311 311 312 312 312 313 312 312 317 330 326 325 322 321 320 321 327 327 327 334 341 341 339 339 338 340 341 340 341 344 346 346 348 344 342 340 333 327 326
313 314 314 311 310 310 311 312 312 313 313 313 313 313 324 326 327 323 321 320 321 322 325 326 328 333 339 340 339 338 339 336 342 342 342 345 345 345 347 343 340 335 331 328 328
314 314 315 311 310 311 312 313 313 314 314 315 314 314 326 327 328 320 321 321 326 326 325 330 335 335 337 338 337 341 340 337 335 337 340 342 347 349 345 340 339 334 331 330 329
314 315 315 312 310 311 312 313 315 315 316 316 315 321 328 324 327 327 326 326 328 328 327 329 335 335 333 336 335 341 340 342 340 338 339 342 351 347 342 341 340 337 334 331 327
315 315 316 313 311 311 313 314 315 317 316 316 316 326 330 327 328 328 327 327 328 327 327 328 333 337 336 338 338 342 344 345 346 339 340 344 349 345 341 340 339 337 335 333 329
315 316 316 314 312 312 313 314 317 318 322 320 321 327 327 326 327 328 328 327 327 326 326 327 333 336 337 337 337 339 345 348 346 346 344 344 349 344 342 341 340 338 336 334 332
316 316 317 315 312 312 314 324 326 330 329 326 327 329 323 327 328 327 328 328 327 327 326 327 334 334 332 336 336 338 345 349 346 342 338 343 348 346 342 342 341 339 337 335 333
317 317 317 315 313 312 312 323 327 326 327 328 326 327 325 327 327 327 328 327 328 327 328 327 329 335 334 334 336 336 336 337 340 338 337 345 349 345 342 341 340 340 338 336 334
318 318 317 315 312 312 313 321 321 326 324 326 325 324 326 325 327 327 327 326 327 326 328 327 325 334 336 334 336 336 335 334 337 336 338 350 351 343 340 342 342 338 338 336 333
319 318 316 315 315 319 322 323 326 326 324 326 325 325 326 327 327 327 328 325 326 326 326 325 324 327 330 333 333 335 333 333 333 333 333 336 354 341 341 344 337 335 336 333 330
320 319 316 315 313 317 326 327 325 325 327 327 326 326 327 326 327 327 328 325 325 325 325 323 323 324 331 335 332 334 335 336 336 335 334 345 346 346 340 341 338 332 331 331 328
321 319 317 316 318 321 323 325 328 325 328 331 324 323 324 324 326 325 327 326 325 324 324 322 323 332 335 334 332 332 337 334 335 329 334 344 346 343 344 341 333 329 326 325 325
321 320 316 315 325 325 322 326 330 327 332 331 327 323 323 326 326 326 327 327 325 326 325 324 324 329 335 336 334 335 336 334 330 329 337 341 345 342 343 336 334 329 324 323 323
323 318 315 313 314 320 321 327 333 333 333 334 335 326 324 326 326 327 326 325 325 326 324 329 336 334 333 334 337 335 332 329 332 333 332 342 344 340 335 333 330 325 322 323 322
322 317 317 314 314 316 324 331 331 337 334 333 335 335 324 325 325 325 324 327 329 329 332 336 337 336 335 336 335 334 330 326 328 326 325 340 339 336 335 333 329 325 324 323 323
322 323 326 320 320 322 328 329 335 336 335 334 337 338 335 328 329 332 340 337 338 335 333 334 339 336 337 336 333 333 329 326 330 334 332 342 344 338 333 330 328 327 324 322 321
321 328 327 321 324 329 331 330 337 331 334 333 337 339 338 343 337 339 340 338 335 337 333 335 339 339 331 334 330 327 325 329 328 330 333 336 339 333 331 329 325 323 323 321 319
331 334 324 324 327 328 328 328 333 335 334 336 338 339 337 341 339 341 339 339 336 337 340 334 334 336 333 330 330 329 329 328 330 331 329 331 335 329 328 327 323 323 323 321 319
334 333 326 325 326 326 327 328 330 336 337 336 337 336 339 336 340 340 339 334 335 337 334 332 335 332 327 333 335 334 329 326 327 329 329 334 338 329 328 326 324 323 321 317 314
335 339 330 326 324 327 331 338 337 332 333 333 333 334 336 338 337 339 340 337 336 332 332 337 335 333 331 331 329 333 331 326 325 327 327 333 336 331 329 327 324 321 318 314 314
337 338 341 327 325 325 336 335 337 337 334 332 333 334 335 339 340 341 338 337 336 336 333 334 336 336 332 332 329 327 327 326 326 324 326 332 334 331 327 325 319 316 314 315 314
343 343 342 336 335 335 335 337 337 336 336 338 338 338 339 338 336 342 343 342 338 333 337 333 338 339 337 334 331 328 327 326 325 325 327 330 332 327 322 319 317 315 314 314 314
341 343 346 341 334 333 338 340 338 337 337 335 336 336 339 332 331 331 334 335 335 339 338 335 337 337 337 336 336 336 336 329 326 323 326 328 327 321 320 317 315 315 314 315 315
Wind_Speed
16 14 14 11 9 8 8 8 8 8 9 9 10 10 9 12 10 7 5 9 12 7 10 5 11 18 17 3 6 7 2 4 6 11 7 11 10 9 13 14 12 5 12 21 22
17 15 13 12 10 9 9 8 8 9 9 9 10 10 10 14 6 9 7 8 10 7 11 10 10 15 3 3 1 5 6 11 6 10 9 11 11 10 6 12 13 16 18 20 21
17 15 14 11 10 9 9 8 8 8 9 9 10 11 10 7 3 6 17 14 10 8 11 15 20 3 4 4 2 6 4 10 8 8 14 9 9 6 14 7 16 20 16 16 21
18 16 15 12 9 9 8 8 8 8 9 10 11 11 10 0 2 2 17 11 7 7 10 9 7 3 6 8 7 7 21 12 7 9 8 10 11 13 11 7 18 14 13 18 14
18 17 15 12 9 9 9 9 9 8 9 10 11 11 4 3 7 8 14 13 11 10 10 7 8 4 13 3 10 6 9 8 3 9 9 16 14 14 13 14 16 17 13 9 12
18 17 16 12 9 9 9 9 9 9 10 10 10 11 1 4 4 12 15 14 10 11 10 16 6 7 11 5 8 7 8 10 13 6 5 12 15 7 12 16 14 10 11 9 11
19 18 17 12 10 9 10 10 10 11 11 9 9 5 4 10 6 12 14 10 11 19 12 5 23 15 7 2 10 7 2 10 9 10 6 13 8 12 16 15 16 11 6 7 9
20 18 16 13 10 9 10 10 11 13 12 8 5 0 6 9 12 8 15 15 15 18 16 13 17 8 6 7 6 3 6 4 7 12 8 5 7 16 17 16 14 13 11 9 10
20 18 16 13 11 10 10 10 12 12 5 2 2 3 7 3 8 16 17 18 13 8 14 16 6 4 4 5 2 3 4 4 9 12 5 2 6 14 14 16 15 13 10 10 9
20 17 16 13 11 10 10 12 9 4 2 1 5 2 7 7 10 17 17 15 7 9 7 6 3 4 2 2 5 5 7 5 14 11 18 12 7 13 16 11 12 11 13 12 11
20 17 15 13 11 11 9 4 3 2 5 8 8 6 4 23 14 13 14 10 8 7 7 7 4 7 13 13 7 8 20 13 20 16 5 13 15 11 7 8 9 8 9 12 13
20 17 15 13 12 11 9 4 11 3 5 16 17 16 25 17 8 10 13 5 5 9 9 8 8 15 17 8 10 9 3 4 5 7 5 14 15 9 6 4 9 12 8 10 13
20 17 15 14 13 14 13 17 21 25 3 5 12 12 17 21 12 10 9 7 8 11 13 9 11 14 16 6 4 3 1 4 8 5 5 19 7 3 4 2 15 10 12 10 10
21 17 15 14 8 6 8 16 13 15 2 7 17 19 18 18 9 16 22 10 7 10 14 11 10 9 9 10 8 4 6 9 12 6 5 6 5 5 7 2 4 3 6 4 7
21 16 14 12 14 6 12 10 2 2 2 8 16 13 1 13 12 12 22 7 9 13 7 10 10 13 4 8 13 4 20 18 12 11 4 2 7 3 6 4 2 5 6 6 6
21 16 13 9 13 18 23 5 1 2 5 8 8 10 9 12 8 9 5 8 9 8 7 9 12 3 3 4 10 11 7 15 22 4 3 4 6 3 3 2 6 3 8 10 7
20 17 13 12 7 9 27 4 2 3 3 5 4 6 8 6 8 7 9 6 7 4 4 9 14 4 6 4 9 6 2 4 6 5 2 6 10 4 8 8 7 9 8 7 7
20 16 13 20 21 17 17 4 3 4 9 16 15 11 10 6 8 8 6 7 6 4 4 4 7 1 2 3 6 7 2 2 4 3 5 6 5 3 6 10 10 9 9 7 8
18 10 7 20 16 14 3 2 3 2 5 13 18 8 7 9 8 8 13 8 5 4 2 3 6 1 5 4 2 4 2 4 2 6 3 5 4 3 6 8 7 10 8 7 6
11 6 12 13 14 12 2 6 2 1 4 4 2 7 11 2 5 1 13 8 17 15 2 4 6 8 2 6 8 8 4 3 4 3 3 3 6 5 6 6 8 7 7 6 4
3 2 7 15 13 2 3 5 3 7 7 7 6 12 4 6 6 7 9 8 14 6 10 5 3 6 8 3 3 5 3 4 2 2 1 2 3 6 7 6 9 7 6 5 6
5 3 15 21 3 3 5 8 11 9 6 8 2 7 3 3 6 6 4 5 12 9 6 5 2 3 6 5 5 1 2 4 4 5 2 3 2 8 8 10 7 7 3 2 2
3 4 11 15 4 5 6 13 15 13 6 10 20 9 10 8 1 3 3 11 18 10 1 3 3 3 8 3 3 2 3 4 3 2 4 1 4 6 7 6 5 3 2 2 2
3 3 1 1 3 5 4 6 4 5 2 4 2 7 6 1 12 4 9 7 9 2 4 1 2 5 5 7 2 2 6 5 6 3 3 2 6 6 7 7 8 7 5 4 2
3 4 4 3 5 9 4 4 3 5 9 2 2 4 5 3 3 6 6 6 4 7 4 3 1 4 7 11 1 6 6 4 6 3 3 4 8 8 8 6 8 7 5 4 6
3 6 5 6 6 0 7 1 5 8 8 2 4 4 6 6 3 2 5 2 6 6 6 2 2 5 7 12 10 4 5 3 4 7 4 11 8 7 6 8 7 5 5 6 6
9 7 3 7 9 8 2 9 8 5 9 12 5 7 5 5 4 2 5 4 1 4 3 2 1 3 4 7 8 4 4 14 3 7 4 3 6 7 6 6 4 2 7 5 7
Wind_Direction
346 342 335 330 324 325 324 319 315 310 307 313 318 315 316 308 296 267 240 219 225 254 214 207 228 230 237 193 119 229 168 288 248 121 148 139 92 61 74 80 51 35 125 149 164
346 340 335 327 322 323 320 317 313 312 313 323 320 320 331 317 299 252 214 200 202 233 207 225 234 228 166 168 341 131 159 215 158 135 154 127 140 132 88 98 89 95 118 147 126
347 340 335 327 320 318 317 311 314 317 324 327 326 329 337 329 303 234 207 214 228 228 244 256 274 253 187 176 148 9 351 261 111 122 127 132 77 108 123 147 141 142 149 115 104
347 340 334 329 319 315 314 312 316 322 326 326 328 328 333 291 100 154 174 192 190 215 252 284 297 220 118 58 297 117 216 254 61 130 122 128 93 76 71 118 139 140 136 117 118
345 339 334 327 317 314 313 310 313 321 321 323 324 331 338 233 254 178 173 170 174 210 238 255 290 295 106 183 243 316 351 45 123 96 96 102 105 101 90 110 130 135 114 107 111
342 338 334 325 314 311 307 307 308 310 313 317 319 334 318 267 198 179 174 175 182 215 255 251 270 237 49 40 84 266 21 11 14 54 112 109 125 102 116 107 115 116 124 128 134
341 337 333 324 309 304 302 302 302 303 304 308 310 333 271 248 218 183 180 196 216 219 242 327 74 72 118 225 114 359 182 4 343 350 311 139 149 110 130 127 132 138 131 133 167
340 337 334 323 307 299 297 297 303 302 299 289 287 157 250 267 222 197 199 238 256 254 272 296 83 93 108 132 60 96 51 20 331 310 296 265 137 141 144 138 148 162 172 173 186
338 337 333 322 309 299 294 298 301 304 304 228 189 182 270 246 217 218 214 228 245 237 265 279 80 101 7 93 138 212 107 114 340 270 239 315 126 154 154 154 164 174 180 186 198
337 336 329 320 308 297 297 301 300 302 350 111 260 297 266 229 223 230 217 244 305 290 273 233 119 118 18 112 234 151 92 242 203 237 199 239 175 163 154 161 167 174 175 186 201
337 333 326 317 304 296 302 333 325 312 233 202 196 247 206 227 234 219 215 242 254 283 273 266 123 208 230 217 236 25 158 196 226 245 218 182 128 152 117 151 179 183 192 194 210
338 331 324 313 299 286 289 244 249 237 267 221 256 228 259 241 181 209 220 217 257 260 279 313 222 208 228 258 205 161 194 241 226 242 156 117 133 91 124 232 204 196 207 212 223
335 329 323 311 297 283 238 241 262 295 310 256 214 233 237 236 229 202 196 215 246 274 279 276 270 183 221 158 76 243 219 274 221 216 163 115 98 77 237 225 264 187 181 211 219
331 327 321 313 302 299 236 243 255 270 315 266 235 238 233 230 207 210 203 187 238 258 278 280 290 318 335 23 12 356 357 343 321 308 246 164 138 111 288 242 58 113 161 187 126
328 325 316 306 299 288 258 253 88 67 293 239 221 224 269 180 202 233 201 189 217 255 269 281 305 314 305 47 19 318 10 337 295 295 255 57 93 139 191 208 193 96 145 148 106
326 319 310 294 271 258 315 307 105 26 260 329 169 187 226 239 223 256 225 188 206 235 274 284 293 76 134 43 15 340 36 288 286 298 9 155 110 190 170 180 153 61 78 100 145
323 309 287 254 239 302 323 186 17 208 310 285 234 184 223 236 215 234 254 222 211 246 281 285 273 257 91 343 337 332 180 300 346 356 276 131 65 204 185 142 140 209 125 139 86
324 302 278 260 257 279 326 21 232 332 283 344 346 277 210 226 259 247 250 259 248 219 269 282 324 359 9 244 239 278 121 182 308 314 260 102 122 198 171 178 215 147 122 101 90
328 304 258 263 251 259 22 323 224 165 294 304 320 288 217 215 225 227 235 280 254 113 324 4 325 46 210 224 212 286 321 243 248 266 335 110 45 342 226 219 184 116 104 111 132
331 294 248 255 207 209 77 253 44 118 316 16 277 11 312 176 299 355 3 25 352 14 13 298 316 302 211 229 248 215 230 352 349 1 321 105 165 187 186 220 123 111 101 73 18
337 295 249 203 180 61 213 250 168 226 139 186 328 316 334 3 8 41 15 341 331 296 355 7 38 310 4 318 74 14 357 30 117 127 244 21 320 191 181 115 90 71 52 48 0
302 303 160 167 106 211 231 245 154 204 262 203 353 215 131 139 353 103 218 189 276 292 351 340 258 305 295 116 77 344 96 95 101 310 262 182 277 88 105 101 138 150 182 41 309
274 262 196 187 188 235 268 266 255 163 210 193 207 200 212 116 3 132 156 248 259 265 191 289 333 346 330 350 59 1 138 137 108 71 269 165 207 130 106 104 93 78 321 287 70
297 292 314 126 236 252 316 283 12 295 133 126 55 124 124 273 225 181 166 209 205 274 201 116 240 194 220 249 32 289 300 138 145 119 294 117 140 153 164 178 183 191 192 85 8
230 271 281 223 233 227 152 289 103 308 308 99 141 271 159 103 54 80 169 164 163 224 199 122 264 312 324 324 6 318 306 40 65 353 93 94 131 167 176 173 127 147 116 64 61
301 323 335 285 341 207 149 306 47 349 332 343 113 279 57 83 48 14 107 236 169 211 164 131 294 327 310 291 264 232 291 223 171 224 151 116 112 145 103 86 87 98 78 73 47
327 323 349 293 344 338 126 140 53 178 354 302 279 82 325 58 37 23 127 128 83 108 113 107 88 13 282 334 329 291 349 13 109 66 80 110 163 114 92 94 98 148 94 75 44